パンスターズ彗星

C/2017 U4 ( PanSTARRS )

English version
Home page
Updated on October 28, 2018

---------------------------------------------------------------------

・ プロフィール

発見日 2017年10月27日
発見光度 21.7等
発見者 Pan-STARRS 1 telescope (Haleakala)

・ 写真集

・ 軌道要素

Epoch 2018 Oct. 9.0 TT = JDT 2458400.5
T 2018 Sept. 25.27168 TT                                MPCW
q   7.7242334            (2000.0)            P               Q
z  -0.0004759      Peri.  159.14988     +0.07899255     +0.93755895
 +/-0.0000029      Node   245.95087     +0.85404169     +0.11161559
e   1.0036758      Incl.  158.22661     +0.51417212     -0.32943159
From 67 observations 2017 Jan. 2-2018 Oct. 10, mean residual 0".4.

・ 光度変化

        m1 = 7.0 + 5 logΔ + 10.0 log r

---------------------------------------------------------------------

軌道要素はM.P.E.C. 2018-U70に掲載されたものです。
光度グラフはComet for Windowsで作成したものです。

---------------------------------------------------------------------

Copyright(C) Seiichi Yoshida (comet@aerith.net). All rights reserved.